This is the latest recevied weather packets stored in our database for station/object N8SDR. If no packets are shown the sender has not sent any weather packets the latest 10 day(s).
| Time | Temp. | Humidity | Pressure | Rain* | Wind** | Luminosity | Snow |
|---|---|---|---|---|---|---|---|
| 1778154695 | 6.67° C | 93% | 1012.1 hPa | 0 mm | - | 68 W/m² | - |
| 1778154391 | 5.56° C | 96% | 1012.4 hPa | 0 mm | - | 61 W/m² | - |
| 1778154088 | 5° C | 98% | 1012 hPa | 0 mm | - | 55 W/m² | - |
| 1778153786 | 5° C | 98% | 1012 hPa | 0 mm | - | 42 W/m² | - |
| 1778153482 | 4.44° C | 99% | 1012.1 hPa | 0 mm | - | 32 W/m² | - |
| 1778153180 | 4.44° C | 99% | 1012.1 hPa | 0 mm | - | 30 W/m² | - |
| 1778152877 | 3.89° C | 99% | 1012.1 hPa | 0 mm | - | 27 W/m² | - |
| 1778152574 | 3.89° C | 99% | 1012.2 hPa | 0 mm | - | 25 W/m² | - |
| 1778152270 | 3.89° C | 99% | 1012 hPa | 0 mm | - | 22 W/m² | - |
| 1778151967 | 3.89° C | 99% | 1011.9 hPa | 0 mm | - | 20 W/m² | - |
| 1778151663 | 3.89° C | 99% | 1011.9 hPa | 0 mm | - | 16 W/m² | - |
| 1778151361 | 3.89° C | 99% | 1011.7 hPa | 0 mm | - | 13 W/m² | - |
| 1778151056 | 3.89° C | 99% | 1011.8 hPa | 0 mm | - | 10 W/m² | - |
| 1778150754 | 3.89° C | 99% | 1011.6 hPa | 0 mm | - | 8 W/m² | - |
| 1778150450 | 3.89° C | 99% | 1011.5 hPa | 0 mm | - | 5 W/m² | - |
| 1778150146 | 3.89° C | 99% | 1011.7 hPa | 0 mm | - | 3 W/m² | - |
| 1778149843 | 3.89° C | 99% | 1011.4 hPa | 0 mm | - | 1 W/m² | - |
| 1778149540 | 3.89° C | 99% | 1011.4 hPa | 0 mm | - | 0 W/m² | - |
| 1778149236 | 3.89° C | 99% | 1011.6 hPa | 0 mm | - | 0 W/m² | - |
| 1778148931 | 3.89° C | 99% | 1011.5 hPa | 0 mm | - | 0 W/m² | - |
| 1778148628 | 3.89° C | 99% | 1011.5 hPa | 0 mm | - | 0 W/m² | - |
| 1778148326 | 4.44° C | 99% | 1011.4 hPa | 0 mm | - | 0 W/m² | - |
| 1778148024 | 4.44° C | 99% | 1011.6 hPa | 0 mm | - | 0 W/m² | - |
| 1778147721 | 4.44° C | 99% | 1011.4 hPa | 0 mm | - | 0 W/m² | - |
| 1778147417 | 4.44° C | 99% | 1011.5 hPa | 0 mm | - | 0 W/m² | - |
* Rain latest hour (hover to see other rain measurements)
** Current wind speed in m/s (hover to see current wind gust speed)